EST,Max TemperatureF,Mean TemperatureF,Min TemperatureF,Max Dew PointF,MeanDew PointF,Min DewpointF,Max Humidity, Mean Humidity, Min Humidity, Max Sea Level PressureIn, Mean Sea Level PressureIn, Min Sea Level PressureIn, Max VisibilityMiles, Mean VisibilityMiles, Min VisibilityMiles, Max Wind SpeedMPH, Mean Wind SpeedMPH, Max Gust SpeedMPH,PrecipitationIn, CloudCover, Events, WindDirDegrees
2012-11-1,85,46,35,42,36,34,94,67,43,29.84,29.77,29.72,10,10,5,14,5,23,0.00,3,,264
2012-11-2,85,46,32,37,34,32,97,71,37,29.96,29.87,29.81,10,9,1,13,3,21,0.00,2,,276
2012-11-3,85,44,30,38,33,29,95,73,36,30.09,30.04,29.96,10,10,1,12,3,10,0.00,0,,304
2012-11-4,85,46,39,42,39,36,94,75,58,30.10,30.04,29.98,10,10,10,12,3,,0.02,7,Rain,41
2012-11-5,54,42,30,42,34,30,96,73,41,30.14,30.07,30.00,10,10,3,10,3,17,0.00,1,,3
2012-11-6,45,36,28,36,33,27,95,79,65,30.14,30.04,29.89,10,9,3,10,3,16,0.00,4,Rain,355
2012-11-7,45,40,36,39,37,33,91,83,65,29.93,29.88,29.84,10,10,10,10,6,,0.00,7,Rain,327
2012-11-8,60,47,34,36,29,16,92,61,18,30.10,30.00,29.93,10,10,10,14,4,18,0.00,1,,293
2012-11-9,62,44,27,39,31,26,95,69,29,30.27,30.20,30.10,10,10,1,8,2,,0.00,0,,310
2012-11-10,72,52,31,44,36,31,97,68,23,30.41,30.33,30.26,10,8,1,6,1,,0.00,0,,209
2012-11-11,73,54,34,51,42,33,96,72,33,30.52,30.45,30.40,10,8,0,7,1,,0.00,1,Fog,169
2012-11-12,77,59,41,61,53,41,96,76,48,30.44,30.33,30.21,10,7,0,13,3,18,0.00,4,Fog,150
2012-11-13,62,52,41,60,49,38,93,89,83,30.41,30.29,30.16,10,10,4,14,5,22,0.09,7,Rain,11
2012-11-14,53,44,35,39,34,30,84,69,52,30.47,30.41,30.38,10,10,7,15,7,20,0.00,4,,17
2012-11-15,52,46,39,46,38,32,93,77,69,30.38,30.29,30.23,10,10,7,9,6,16,0.08,7,Rain,356
2012-11-16,55,44,33,43,38,32,94,76,48,30.38,30.30,30.24,10,10,10,14,6,20,0.04,3,,4
2012-11-17,57,44,31,42,37,31,95,75,54,30.47,30.43,30.38,10,10,10,14,5,20,0.00,2,,15
2012-11-18,59,54,48,48,46,42,86,77,65,30.44,30.38,30.31,10,10,7,16,11,24,0.00,8,,19
2012-11-19,55,52,50,48,45,44,82,77,74,30.31,30.24,30.15,10,10,10,16,11,23,0.00,8,,5
2012-11-20,59,49,38,46,44,37,94,74,60,30.15,30.10,30.06,10,10,2,10,6,,0.00,6,,5
2012-11-21,59,47,35,41,36,30,95,72,34,30.17,30.12,30.08,10,8,0,12,3,16,0.00,0,Fog,1
2012-11-22,61,46,32,38,34,30,94,68,37,30.23,30.17,30.14,10,10,10,12,5,16,0.00,0,,348
2012-11-23,67,48,28,39,33,27,94,62,27,30.16,30.00,29.85,10,10,7,10,2,,0.00,1,,227
2012-11-24,52,42,31,39,25,20,77,48,31,30.13,29.98,29.84,10,10,10,14,7,20,0.00,0,,304
2012-11-25,50,35,20,30,21,17,91,60,27,30.19,30.11,30.04,10,10,10,13,4,16,0.00,0,,236
2012-11-26,66,46,27,34,28,24,94,60,20,30.21,30.16,30.09,10,10,1,8,2,,0.00,0,,240
2012-11-27,58,45,32,43,37,32,96,75,41,30.24,30.17,30.11,10,9,5,12,2,16,0.01,6,Rain,339
2012-11-28,51,39,27,37,32,26,96,78,44,30.39,30.31,30.23,10,8,2,9,4,18,0.02,1,,343
2012-11-29,55,38,22,32,26,20,94,75,29,30.49,30.42,30.38,10,9,7,8,1,,0.00,0,,250
2012-11-30,61,43,25,38,31,24,96,74,35,30.42,30.36,30.31,10,10,2,8,1,,0.00,0,,212